[[{"header":{"parameterUnit":"m.s-1","parameterCategory":1,"la1":30.2991,"la2":30.254,"lo1":-89.0895,"lo2":-89.0444,"dy":0.0017,"dx":0.0017,"nx":28,"ny":28,"refTime":"2023-08-21T09:00:00:Z","depth":0,"parameterNumber":2,"parameterNumberName":"U-component_of_WINDS"},"data":[0,0,0,0,0,0,0,0,0,0,0,0,0,0,0,0,0,0,0,0,0,0,0,0,0,0,0,0,0,0,0,0,0,0,0,0,0,0,0,0,0,0,0,0,0,0,0,0,0,0,0,0,0,0,0,0,0,0,-4.4442,-4.4443,0,-4.4482,-4.4482,-4.4482,-4.4349,-4.4345,-4.4341,-4.4337,-4.4377,-4.4382,-4.4386,0,0,0,0,0,0,0,0,0,0,0,0,0,-4.4252,-4.4257,-4.4442,-4.4443,-4.4443,-4.4481,-4.4482,-4.4482,-4.435,-4.4345,-4.434,-4.4336,-4.4375,-4.4381,-4.4387,0,0,0,0,0,0,0,0,0,0,0,0,0,-4.4318,-4.4258,-4.4442,-4.4382,-4.4377,-4.4481,-4.4482,-4.4483,-4.4351,-4.4345,-4.4339,-4.4333,-4.4374,-4.438,-4.4388,-4.4552,0,0,-4.4409,-4.4413,0,0,0,0,0,0,0,0,-4.4314,-4.4325,-4.439,-4.4386,-4.4381,-4.4404,-4.4429,-4.4506,-4.4353,-4.4361,-4.4337,-4.433,-4.4391,-4.4396,-4.4417,-4.4554,-4.4556,-4.441,-4.4414,-4.4418,-4.442,0,0,0,0,0,0,0,-4.431,-4.4322,-4.4458,-4.4391,-4.4386,-4.4353,-4.4355,-4.4443,-4.4409,-4.436,-4.435,-4.4357,-4.4387,-4.441,-4.4417,-4.4556,-4.441,-4.4416,-4.4421,-4.4424,-4.483,-4.4836,0,0,0,0,0,0,-4.4313,-4.4319,-4.4456,-4.4459,-4.4332,-4.4361,-4.4364,-4.4403,-4.4408,-4.4403,-4.4362,-4.435,-4.4401,-4.4408,-4.4418,-4.461,-4.4417,-4.4424,-4.4428,-4.4824,-4.4832,-4.4839,0,0,0,0,0,0,-4.431,-4.4327,-4.4455,-4.4387,-4.44,-4.4371,-4.4415,-4.4407,-4.4429,-4.4409,-4.4402,-4.4391,-4.4396,-4.4407,-4.452,-4.4609,-4.4427,-4.4434,-4.4816,-4.4826,-4.4835,-4.4996,0,0,0,0,0,0,-4.4305,-4.4326,-4.4388,-4.4389,-4.4405,-4.4557,-4.4421,-4.4412,-4.4442,-4.4428,-4.4435,-4.4431,-4.4393,-4.451,-4.4527,-4.4616,-4.444,-4.4808,-4.482,-4.4832,-4.4982,-4.501,-4.5033,0,0,0,0,0,-4.4299,-4.4432,-4.4392,-4.4409,-4.4482,-4.4562,-4.4571,-4.4524,-4.445,-4.4512,-4.4499,-4.4431,-4.4597,-4.4522,-4.454,-4.4633,-4.4802,-4.4817,-4.4831,-4.4971,-4.5004,-4.5033,0,0,0,0,0,0,-4.4442,-4.4431,-4.4387,-4.4524,-4.4545,-4.4539,-4.4616,-4.4561,-4.4603,-4.4588,-4.4528,-4.4531,-4.4654,-4.4655,-4.4571,-4.4792,-4.4687,-4.4706,-4.4787,-4.4819,-4.4844,-4.484,-4.4446,0,0,0,0,0,-4.449,-4.4556,-4.4543,-4.4665,-4.4678,-4.4646,-4.4679,-4.4642,-4.4661,-4.4669,-4.4664,-4.4685,-4.4742,-4.4781,-4.4832,-4.4983,-4.4982,-4.5056,-4.5081,-4.5102,-4.5119,-4.5198,-4.523,-4.4887,-4.4886,-4.4886,0,0,-4.4588,-4.4591,-4.4636,-4.4694,-4.4706,-4.4776,-4.4654,-4.4733,-4.4784,-4.4681,-4.4786,-4.4784,-4.4803,-4.4936,-4.4994,-4.494,-4.5214,-4.5121,-4.5138,-4.5143,-4.5216,-4.5249,-4.5278,-4.4897,-4.4895,-4.4893,0,0,-4.4803,-4.4813,-4.4915,-4.493,-4.495,-4.4928,-4.4953,-4.4956,-4.4951,-4.5056,-4.498,-4.504,-4.514,-4.5157,-4.5178,-4.5403,-4.5341,-4.5422,-4.5554,-4.5632,-4.5659,-4.5683,-4.5762,-4.5791,-4.5439,-4.5439,-4.5439,0,-4.4923,-4.5026,-4.4975,-4.506,-4.5087,-4.4998,-4.5102,-4.5119,-4.5155,-4.5176,-4.5116,-4.5239,-4.5246,-4.5381,-4.5436,-4.5457,-4.5483,-4.5419,-4.566,-4.5683,-4.5704,-4.5779,-4.5809,-4.5449,-4.5447,-4.5446,-4.5446,0,-4.5172,-4.5244,-4.5325,-4.5362,-4.5399,-4.5493,-4.5457,-4.5501,-4.5461,-4.5446,-4.5554,-4.556,-4.5611,-4.5641,-4.5602,-4.5771,-4.5737,-4.567,-4.5562,-4.5747,-4.5816,-4.5845,-4.5462,-4.5459,-4.5456,-4.5454,0,0,-4.5475,-4.5485,-4.5515,-4.5531,-4.5548,-4.5602,-4.5693,-4.5743,-4.5781,-4.581,-4.5883,-4.5971,-4.5909,-4.5934,-4.5898,-4.5967,-4.6143,-4.5891,-4.589,-4.5936,-4.6328,-4.6377,-4.6411,-4.6104,-4.6109,-4.6113,-4.6326,0,-4.5686,-4.584,-4.5798,-4.5952,-4.6017,-4.5935,-4.6014,-4.6033,-4.6021,-4.6076,-4.6063,-4.6125,-4.604,-4.6054,-4.6119,-4.6108,-4.6221,-4.6092,-4.6171,-4.6174,-4.6166,-4.6447,-4.6499,-4.6699,-4.6353,-4.6357,-4.6361,0,-4.5951,-4.599,-4.6151,-4.6157,-4.6183,-4.6254,-4.6297,-4.6351,-4.6371,-4.6357,-4.6387,-4.6337,-4.6426,-4.632,-4.6442,-4.6355,-4.6385,-4.6385,-4.6392,-4.6395,-4.6277,-4.6456,-4.6762,-4.6791,-4.6403,-4.6399,-4.6396,0,-4.6154,-4.6248,-4.6355,-4.6372,-4.6382,-4.6434,-4.6441,-4.6455,-4.6488,-4.6526,-4.6547,-4.6596,-4.6622,-4.6661,-4.6625,-4.6551,-4.6752,-4.6643,-4.6743,-4.6744,-4.6787,-4.6784,-4.7099,-4.6811,-4.681,-4.681,-4.6809,0,-4.6392,-4.6493,-4.6447,-4.6513,-4.6624,-4.6576,-4.6687,-4.6684,-4.6698,-4.6763,-4.6695,-4.6757,-4.6707,-4.6765,-4.6738,-4.6843,-4.6856,-4.6847,-4.6838,-4.6852,-4.6853,-4.6869,-4.6853,-4.6817,-4.6816,-4.6814,-4.6813,0,-4.6636,-4.661,-4.6722,-4.6723,-4.6726,-4.6808,-4.6808,-4.687,-4.6855,-4.6937,-4.6954,-4.693,-4.6994,-4.6964,-4.7031,-4.7013,-4.7148,-4.7121,-4.7141,-4.7133,-4.7234,-4.7224,-4.7568,-4.7611,-4.7297,-4.73,-4.7303,0,-4.6789,-4.6864,-4.6874,-4.6913,-4.6924,-4.6987,-4.7021,-4.6977,-4.7015,-4.7045,-4.7103,-4.7162,-4.7206,-4.7314,-4.7302,-4.7354,-4.7327,-4.7444,-4.7334,-4.7346,-4.7327,-4.7322,-4.7329,-4.7466,-4.7469,-4.7472,-4.7475,0,-4.7061,-4.7045,-4.7096,-4.7144,-4.7186,-4.7222,-4.7251,-4.7287,-4.7244,-4.7291,-4.7356,-4.7391,-4.746,-4.7519,-4.7565,-4.7572,-4.7517,-4.751,-4.7536,-4.7549,-4.7556,-4.7552,-4.7199,-4.7502,-4.7499,-4.7497,-4.7495,-4.7494,-4.7262,-4.7326,-4.7343,-4.7403,-4.7421,-4.7451,-4.7508,-4.7501,-4.7555,-4.7608,-4.758,-4.7656,-4.7675,-4.7731,-4.7745,-4.7805,-4.7758,-4.7795,-4.7804,-4.7814,-4.7827,-4.755,-4.7813,-4.7812,-4.7811,-4.7811,-4.781,0,-4.753,-4.7537,-4.7593,-4.7637,-4.7684,-4.763,-4.766,-4.7703,-4.7771,-4.7794,-4.784,-4.7916,-4.7974,-4.7968,-4.8021,-4.807,-4.8046,-4.8085,-4.808,-4.8082,-4.7866,-4.7838,-4.8103,-4.8103,-4.8103,-4.8103,-4.8103,-4.8103,-4.7674,-4.7779,-4.7765,-4.7878,-4.7885,-4.7959,-4.7981,-4.8008,-4.8026,-4.8114,-4.8161,-4.8158,-4.817,-4.8223,-4.8274,-4.8271,-4.8293,-4.8341,-4.8329,-4.8126,-4.8097,-4.8069,-4.8042,-4.8347,-4.8347,-4.854,-4.8541,-4.8543]},{"header":{"parameterUnit":"m.s-1","parameterCategory":1,"la1":30.2991,"la2":30.254,"lo1":-89.0895,"lo2":-89.0444,"dy":0.0017,"dx":0.0017,"nx":28,"ny":28,"refTime":"2023-08-21T09:00:00:Z","depth":0,"parameterNumber":3,"parameterNumberName":"V-component_of_WINDS"},"data":[0,0,0,0,0,0,0,0,0,0,0,0,0,0,0,0,0,0,0,0,0,0,0,0,0,0,0,0,0,0,0,0,0,0,0,0,0,0,0,0,0,0,0,0,0,0,0,0,0,0,0,0,0,0,0,0,0,0,-0.6258,-0.6259,0,-0.629,-0.629,-0.6291,-0.6322,-0.6322,-0.6323,-0.6323,-0.6355,-0.6356,-0.6356,0,0,0,0,0,0,0,0,0,0,0,0,0,-0.6223,-0.6223,-0.6258,-0.6259,-0.6259,-0.629,-0.629,-0.6291,-0.6322,-0.6322,-0.6323,-0.6323,-0.6355,-0.6355,-0.6356,0,0,0,0,0,0,0,0,0,0,0,0,0,-0.6244,-0.6223,-0.6258,-0.6278,-0.628,-0.629,-0.629,-0.6291,-0.6322,-0.6322,-0.6323,-0.6323,-0.6355,-0.6355,-0.6356,-0.6348,0,0,-0.6358,-0.6359,0,0,0,0,0,0,0,0,-0.6243,-0.6246,-0.6275,-0.6277,-0.6279,-0.6303,-0.629,-0.631,-0.6321,-0.6306,-0.6323,-0.6324,-0.6337,-0.6339,-0.6344,-0.635,-0.6351,-0.6358,-0.6359,-0.6359,-0.6359,0,0,0,0,0,0,0,-0.6242,-0.6245,-0.6271,-0.6275,-0.6278,-0.6285,-0.6289,-0.6294,-0.6318,-0.6307,-0.631,-0.6313,-0.6338,-0.6343,-0.6345,-0.6352,-0.6358,-0.6359,-0.6359,-0.636,-0.6351,-0.635,0,0,0,0,0,0,-0.6237,-0.6243,-0.627,-0.6272,-0.6262,-0.6285,-0.6289,-0.6294,-0.6318,-0.6322,-0.6312,-0.6314,-0.6342,-0.6344,-0.6346,-0.6338,-0.6359,-0.636,-0.636,-0.6352,-0.6351,-0.635,0,0,0,0,0,0,-0.6236,-0.6239,-0.6269,-0.6258,-0.6262,-0.6285,-0.629,-0.6295,-0.63,-0.6322,-0.6326,-0.6313,-0.6342,-0.6345,-0.6347,-0.6339,-0.636,-0.6361,-0.6352,-0.6351,-0.6351,-0.6322,0,0,0,0,0,0,-0.6235,-0.6239,-0.6237,-0.6258,-0.6263,-0.627,-0.629,-0.6295,-0.6301,-0.6304,-0.6323,-0.6327,-0.6343,-0.6346,-0.6348,-0.6341,-0.6361,-0.6353,-0.6352,-0.6351,-0.6323,-0.632,-0.6317,0,0,0,0,0,-0.6234,-0.6228,-0.6237,-0.624,-0.6261,-0.6269,-0.6272,-0.629,-0.63,-0.6298,-0.6311,-0.6327,-0.634,-0.6346,-0.6348,-0.6341,-0.6354,-0.6352,-0.6351,-0.6325,-0.632,-0.6317,0,0,0,0,0,0,-0.6206,-0.6231,-0.6241,-0.6242,-0.6253,-0.6274,-0.6272,-0.6285,-0.6294,-0.6296,-0.6319,-0.6323,-0.6322,-0.6332,-0.6338,-0.6334,-0.6349,-0.6348,-0.6328,-0.6324,-0.6321,-0.6319,-0.6362,0,0,0,0,0,-0.6199,-0.6205,-0.6226,-0.6224,-0.623,-0.625,-0.6254,-0.6267,-0.628,-0.6285,-0.6299,-0.631,-0.6317,-0.6321,-0.6328,-0.6324,-0.6329,-0.632,-0.6317,-0.6314,-0.6313,-0.6311,-0.6307,-0.6345,-0.6345,-0.6345,0,0,-0.6187,-0.6201,-0.6203,-0.6219,-0.623,-0.6234,-0.6254,-0.6258,-0.6261,-0.6285,-0.6288,-0.6298,-0.6312,-0.6311,-0.6311,-0.6319,-0.6303,-0.6312,-0.631,-0.6311,-0.6309,-0.6305,-0.6302,-0.6344,-0.6345,-0.6345,0,0,-0.6166,-0.6178,-0.6177,-0.6187,-0.6202,-0.6215,-0.6214,-0.6233,-0.6241,-0.6244,-0.6262,-0.6265,-0.6277,-0.6286,-0.6292,-0.6271,-0.6285,-0.6273,-0.6256,-0.6253,-0.625,-0.6247,-0.624,-0.6237,-0.6272,-0.6272,-0.6272,0,-0.6149,-0.6157,-0.6175,-0.6178,-0.6183,-0.6205,-0.6204,-0.6212,-0.6229,-0.6232,-0.624,-0.6254,-0.6265,-0.6265,-0.626,-0.6264,-0.6264,-0.6271,-0.6249,-0.6246,-0.6244,-0.6237,-0.6234,-0.627,-0.627,-0.627,-0.6271,0,-0.6134,-0.6138,-0.6136,-0.6151,-0.6156,-0.6157,-0.6175,-0.6178,-0.619,-0.6201,-0.6203,-0.6217,-0.6226,-0.6227,-0.6239,-0.6229,-0.6233,-0.6245,-0.626,-0.6239,-0.6232,-0.623,-0.6268,-0.6268,-0.6269,-0.6269,0,0,-0.6099,-0.6122,-0.6121,-0.6127,-0.6144,-0.6148,-0.6148,-0.6158,-0.616,-0.617,-0.617,-0.6178,-0.6188,-0.6195,-0.6207,-0.6205,-0.6187,-0.6217,-0.6217,-0.6211,-0.6175,-0.6167,-0.6164,-0.6195,-0.6195,-0.6195,-0.6174,0,-0.6081,-0.6084,-0.61,-0.6098,-0.6102,-0.6121,-0.6121,-0.6131,-0.6141,-0.6146,-0.6157,-0.6162,-0.6175,-0.6179,-0.6177,-0.6189,-0.618,-0.6191,-0.6196,-0.6196,-0.6193,-0.616,-0.6152,-0.6132,-0.6172,-0.6171,-0.6171,0,-0.6062,-0.607,-0.6068,-0.6083,-0.6085,-0.6086,-0.6094,-0.6098,-0.6109,-0.6116,-0.6123,-0.6136,-0.6137,-0.615,-0.6151,-0.6158,-0.6161,-0.6166,-0.6166,-0.6168,-0.6183,-0.6161,-0.6126,-0.6123,-0.6168,-0.6168,-0.6168,0,-0.6036,-0.6046,-0.6046,-0.6051,-0.6069,-0.6068,-0.6075,-0.6087,-0.6091,-0.6098,-0.61,-0.6108,-0.6112,-0.6116,-0.6131,-0.614,-0.613,-0.6145,-0.6136,-0.6135,-0.6134,-0.6134,-0.6099,-0.6134,-0.6134,-0.6135,-0.6135,0,-0.6015,-0.6013,-0.6034,-0.6035,-0.6032,-0.605,-0.6047,-0.6056,-0.6065,-0.6067,-0.6083,-0.6084,-0.6103,-0.6106,-0.6117,-0.6116,-0.6118,-0.6123,-0.6126,-0.6122,-0.6121,-0.6125,-0.6127,-0.6134,-0.6134,-0.6134,-0.6134,0,-0.5986,-0.6001,-0.6002,-0.6018,-0.6022,-0.6019,-0.6033,-0.6033,-0.6043,-0.6045,-0.6046,-0.6062,-0.6066,-0.6081,-0.6088,-0.6096,-0.6091,-0.6096,-0.6087,-0.6089,-0.6079,-0.608,-0.6046,-0.6042,-0.6079,-0.6079,-0.6079,0,-0.5973,-0.5972,-0.5987,-0.5989,-0.5995,-0.5998,-0.6002,-0.6018,-0.6021,-0.6032,-0.6031,-0.6035,-0.6041,-0.6046,-0.6058,-0.6063,-0.6069,-0.6057,-0.607,-0.6066,-0.6069,-0.6069,-0.6069,-0.6054,-0.6054,-0.6053,-0.6053,0,-0.5946,-0.5953,-0.5958,-0.5964,-0.5968,-0.5974,-0.5981,-0.5981,-0.5999,-0.6001,-0.6005,-0.6009,-0.6016,-0.602,-0.6027,-0.6034,-0.6046,-0.6048,-0.6047,-0.6043,-0.6037,-0.604,-0.6079,-0.6049,-0.605,-0.605,-0.605,-0.605,-0.5925,-0.5924,-0.5934,-0.5939,-0.5945,-0.5951,-0.5951,-0.5961,-0.5964,-0.5971,-0.598,-0.5982,-0.5991,-0.6002,-0.6007,-0.6009,-0.6016,-0.6013,-0.6013,-0.6012,-0.601,-0.6036,-0.601,-0.601,-0.6011,-0.6011,-0.6011,0,-0.59,-0.5906,-0.591,-0.5919,-0.5921,-0.5932,-0.5939,-0.5941,-0.5943,-0.595,-0.5954,-0.5957,-0.5961,-0.5973,-0.5977,-0.5976,-0.5982,-0.5977,-0.5978,-0.5979,-0.6004,-0.6005,-0.5972,-0.5972,-0.5973,-0.5973,-0.5973,-0.5973,-0.5887,-0.5886,-0.5893,-0.5895,-0.5902,-0.5904,-0.5907,-0.5912,-0.5918,-0.5921,-0.5924,-0.5931,-0.594,-0.5945,-0.5948,-0.5951,-0.5952,-0.5946,-0.5951,-0.5974,-0.5977,-0.5981,-0.5982,-0.5946,-0.5946,-0.5926,-0.5926,-0.5926]}]]